OneWeb SL0115

operational
NORAD ID: 48042 Int'l Des: 2021-025 Owner: ONEWEBN Country: UK Constellation: oneweb
LEOCIRCULARPOLARONEWEB_TYPE

OneWeb SL0115について

説明を読み込み中...

リアルタイム位置

3D地球を読み込み中...

次回通過

高度履歴

Altitude vs Time

uPlot chart will show altitude changes over time

軌道要素

1 48042U 21025A 25310.58478219 -.00000023 00000-0 -99143-4 0 9990
2 48042 87.9031 4.4569 0001811 99.5809 260.5525 13.13469613224377
Epoch: Nov 6, 2025 • Age: 18 hours

現在のステータス

高度 1213.0 km
速度 7.25 km/s
衛星直下点 29.89°N, 168.32°W
打ち上げ日 Mar 25, 2021
運用期間 4.6 years
タイプ internet

技術仕様

分類 Payload
質量 148.00 kg
乾燥質量 140.00 kg
総質量 148.00 kg
長さ 1.30 m
直径 1.00 m
スパン 5.00 m
形状 Trapezoid+2 pan
製造者 ONEWUS
バスタイプ ARROW
フェーズステータス In Orbit
所有者/国 ONEWEBN/UK

大規模コンステレーション

Loading constellations...